"Time","Temp","Dewpoint","Humidity","Pressure","Direction","Speed","Gust","Precip","PrecipRate"
"00:04:57","68.2","65.8","91.9","30.12","140","1.1","5","0.00","0.00"
"00:09:59","68.2","65.8","92","30.12","129","0.7","4.6","0.00","0.00"
"00:14:58","68.1","65.7","92","30.12","129","0.5","2.3","0.00","0.00"
"00:19:56","68","65.8","92.5","30.12","129","0.5","2.3","0.00","0.00"
"00:24:58","68","65.9","93","30.12","129","0.5","2.3","0.00","0.00"
"00:29:59","67.9","65.8","93","30.12","129","1.2","3.5","0.00","0.00"
"00:34:57","67.9","65.8","93","30.12","130","0.9","3.5","0.00","0.00"
"00:39:59","67.9","65.8","93","30.12","133","1.3","5","0.00","0.00"
"00:44:57","67.9","65.8","93","30.12","145","1.4","4.6","0.00","0.00"
"00:49:59","68","65.8","92.8","30.12","140","1.6","5","0.00","0.00"
"00:54:56","68","65.7","92.3","30.12","138","1.2","4","0.00","0.00"
"00:59:58","68","65.6","92","30.12","136","1","4","0.00","0.00"
"01:04:59","68","65.6","92","30.11","126","1.2","4","0.00","0.00"
"01:09:57","68","65.6","92","30.11","112","1.7","4","0.00","0.00"
"01:14:59","67.9","65.5","92","30.11","124","2.1","4","0.00","0.00"
"01:19:57","67.9","65.5","92","30.11","117","1.6","5","0.00","0.00"
"01:24:59","67.8","65.4","92","30.11","124","2.1","5","0.00","0.00"
"01:29:57","67.8","65.3","92","30.11","123","2.6","5","0.00","0.00"
"01:34:58","67.7","65.3","92","30.09","122","1.9","5","0.00","0.00"
"01:39:57","67.7","65.3","92","30.09","126","1.8","4.6","0.00","0.00"
"01:44:59","67.7","65.3","92","30.09","168","1.4","4","0.00","0.00"
"01:49:57","67.6","65.2","92","30.09","170","0.9","4","0.00","0.00"
"01:54:58","67.6","65.2","92","30.09","137","1.6","6","0.00","0.00"
"01:59:56","67.6","65.2","92","30.09","135","2.2","6","0.00","0.00"
"02:04:57","67.6","65.2","92","30.08","154","1.4","4","0.00","0.00"
"02:09:59","67.5","65.3","92.6","30.08","149","1.1","3.5","0.00","0.00"
"02:14:58","67.5","65.4","93","30.09","147","1.2","3.5","0.00","0.00"
"02:19:59","67.4","65.3","93","30.09","142","0.5","2.3","0.00","0.00"
"02:24:57","67.4","65.3","93","30.09","143","1.3","3.5","0.00","0.00"
"02:29:58","67.4","65.3","93","30.09","144","1.2","3.5","0.00","0.00"
"02:34:57","67.3","65.3","93.2","30.08","144","0.9","2.3","0.00","0.00"
"02:39:59","67.2","65.3","93.7","30.08","144","0.2","2.3","0.00","0.00"
"02:44:57","67.1","65.3","94","30.08","144","0","0","0.00","0.00"
"02:49:58","67.1","65.3","94","30.08","144","0.7","3.5","0.00","0.00"
"02:54:57","67","65.2","94","30.08","144","1.1","3.5","0.00","0.00"
"02:59:58","67","65.2","94","30.08","144","1.4","3.5","0.00","0.00"
"03:04:52","66.9","65.1","94","30.08","145","1","3.5","0.00","0.00"
"03:09:58","66.8","65","94","30.08","145","1.3","3.5","0.00","0.00"
"03:14:58","66.8","65","94","30.08","146","1.5","4","0.00","0.00"
"03:19:59","66.7","64.9","94","30.08","146","1.1","3.5","0.00","0.00"
"03:24:57","66.7","64.9","94","30.08","146","0","1.2","0.00","0.00"
"03:29:59","66.7","64.9","94","30.08","146","0","0","0.00","0.00"
"03:34:57","66.6","64.8","94","30.07","144","0","0","0.00","0.00"
"03:39:56","66.5","64.7","94","30.07","144","0","0","0.00","0.00"
"03:44:57","66.5","64.7","94.3","30.07","146","0","0","0.00","0.00"
"03:49:59","66.4","64.9","95","30.07","151","1.2","4","0.00","0.00"
"03:54:57","66.4","64.9","95","30.07","162","1.3","4","0.00","0.00"
"03:59:58","66.3","64.8","95","30.07","163","1","3.5","0.00","0.00"
"04:04:56","66.3","64.8","95","30.07","163","0.2","2.3","0.00","0.00"
"04:09:58","66.3","64.8","95","30.07","163","0","0","0.00","0.00"
"04:14:57","66.2","64.7","95","30.08","164","1","2.3","0.00","0.00"
"04:19:58","66.1","64.6","95","30.08","164","1.2","3.5","0.00","0.00"
"04:24:57","66.1","64.6","95","30.08","164","1.5","3.5","0.00","0.00"
"04:29:58","66","64.5","95","30.08","164","0.9","3.5","0.00","0.00"
"04:34:56","65.9","64.4","95","30.08","164","1","3.5","0.00","0.00"
"04:39:59","65.9","64.4","95","30.08","165","0.5","2.3","0.00","0.00"
"04:44:56","65.8","64.5","95.5","30.08","165","0.7","2.3","0.00","0.00"
"04:49:58","65.8","64.6","96","30.07","165","0.1","1.2","0.00","0.00"
"04:54:59","65.7","64.5","96","30.07","165","0.1","1.2","0.00","0.00"
"04:59:57","65.7","64.5","96","30.07","165","0.3","2","0.00","0.00"
"05:04:59","65.6","64.4","96","30.07","165","0","0","0.00","0.00"
"05:09:57","65.6","64.4","96","30.07","165","0","0","0.00","0.00"
"05:14:56","65.6","64.4","96","30.07","165","0","0","0.00","0.00"
"05:19:57","65.5","64.3","96","30.07","165","0","0","0.00","0.00"
"05:24:59","65.5","64.3","96","30.07","165","0","0","0.00","0.00"
"05:29:57","65.5","64.3","96","30.07","165","0","0","0.00","0.00"
"05:34:59","65.5","64.3","96","30.06","165","0","0","0.00","0.00"
"05:39:58","65.5","64.3","96","30.06","165","0","0","0.00","0.00"
"05:44:56","65.5","64.3","96","30.06","165","0","0","0.00","0.00"
"05:49:58","65.5","64.3","96","30.06","165","0","0","0.00","0.00"
"05:54:56","65.5","64.3","96","30.06","165","0","1.2","0.00","0.00"
"05:59:58","65.4","64.2","96","30.06","165","0","0","0.00","0.00"
"06:04:56","65.4","64.2","96","30.06","167","0.1","2.3","0.00","0.00"
"06:09:59","65.4","64.2","96.1","30.06","167","0.1","1.2","0.00","0.00"
"06:14:57","65.4","64.5","97","30.06","167","0","0","0.00","0.00"
"06:19:59","65.4","64.5","97","30.06","165","0.4","2.3","0.00","0.00"
"06:24:57","65.5","64.6","97","30.06","165","0.1","1.2","0.00","0.00"
"06:29:59","65.5","64.6","97","30.06","165","0","1.2","0.00","0.00"
"06:34:57","65.5","64.6","97","30.06","165","0","0","0.00","0.00"
"06:39:59","65.6","64.7","97","30.06","165","0","0","0.00","0.00"
"06:44:56","65.6","64.7","97","30.08","165","0","1","0.00","0.00"
"06:49:57","65.6","64.7","97","30.08","165","0","1.2","0.00","0.00"
"06:54:59","65.7","64.8","97","30.08","171","0","0","0.00","0.00"
"06:59:56","65.8","64.9","97","30.08","169","0.1","1.2","0.00","0.00"
"07:04:58","65.9","65","97","30.08","169","0","1.2","0.00","0.00"
"07:09:56","65.9","65","97","30.08","169","0","0","0.00","0.00"
"07:14:59","65.9","65","97","30.08","161","0","1.2","0.00","0.00"
"07:19:56","66.1","65.2","97","30.08","155","0","0","0.00","0.00"
"07:24:58","66.1","65.2","97","30.08","162","0","0","0.00","0.00"
"07:29:56","66.1","65.2","97","30.08","162","0","0","0.00","0.00"
"07:34:57","66.1","65.1","96.5","30.08","129","0","0","0.00","0.00"
"07:39:55","66.2","65.3","97","30.08","129","0","0","0.00","0.00"
"07:44:57","66.3","65.4","97","30.08","129","0","0","0.00","0.00"
"07:49:58","66.4","65.5","97","30.08","129","0","0","0.00","0.00"
"07:54:56","66.5","65.5","96.7","30.08","129","0","0","0.00","0.00"
"07:59:58","66.5","65.3","96","30.08","129","0","0","0.00","0.00"
"08:04:59","66.6","65.4","96","30.07","129","0","0","0.00","0.00"
"08:09:58","66.7","65.5","96","30.07","129","0","0","0.00","0.00"
"08:14:56","66.8","65.6","96","30.07","107","0","0","0.00","0.00"
"08:19:57","67","65.8","96","30.07","215","0.5","3.5","0.00","0.00"
"08:24:58","67.1","65.8","95.7","30.07","201","0.1","1.2","0.00","0.00"
"08:29:56","67.2","65.7","95.1","30.08","24","0","1.2","0.00","0.00"
"08:34:57","67.4","65.9","95","30.08","24","0","0","0.00","0.00"
"08:39:56","67.6","66.1","95","30.08","24","0","0","0.00","0.00"
"08:44:57","67.7","66","94.3","30.08","39","1.2","3.5","0.00","0.00"
"08:49:58","67.9","66.1","94","30.08","61","0.1","2.3","0.00","0.00"
"08:54:59","68.1","66.1","93.5","30.08","61","0.1","2.3","0.00","0.00"
"08:59:57","68.2","66.1","93","30.08","61","0.7","3.5","0.00","0.00"
"09:04:59","68.3","66.1","92.6","30.07","61","0.6","2.3","0.00","0.00"
"09:09:57","68.5","66.1","92","30.07","65","0.1","1.2","0.00","0.00"
"09:14:55","68.8","66.2","91.3","30.08","176","0.7","3.5","0.00","0.00"
"09:19:59","69","66.3","91","30.08","176","0","1.2","0.00","0.00"
"09:24:58","69.2","66.3","90.7","30.08","170","0.7","2.3","0.00","0.00"
"09:29:57","69.2","66.3","90.5","30.08","167","0.5","3","0.00","0.00"
"09:34:57","69.3","66.1","89.5","30.07","171","0.2","3.5","0.00","0.00"
"09:39:57","69.5","66.3","89.8","30.07","171","0","0","0.00","0.00"
"09:44:56","69.7","66.3","89.2","30.07","171","0","1.2","0.00","0.00"
"09:49:56","69.8","66.6","89.7","30.06","171","0","0","0.00","0.00"
"09:54:59","70","66.5","88.7","30.06","171","0.1","1.2","0.00","0.00"
"09:59:58","70.1","66.4","88.1","30.06","171","0.2","2.3","0.00","0.00"
"10:04:56","69.9","66.4","88.5","30.06","171","0.3","1.2","0.00","0.00"
"10:09:58","69.8","66.3","88.7","30.06","171","0.2","1.2","0.00","0.00"
"10:14:59","69.7","66.5","89.6","30.06","169","0.3","1.2","0.00","0.00"
"10:19:58","69.6","66.5","90","30.06","80","0.3","3.5","0.00","0.00"
"10:24:57","69.4","66.3","90","30.06","67","0.5","2.3","0.00","0.00"
"10:29:58","69.2","66.3","90.5","30.06","69","0.4","2.3","0.00","0.00"
"10:34:57","69.1","66.4","91","30.06","91","0.4","3.5","0.00","0.00"
"10:39:57","69.1","66.5","91.3","30.06","107","0.3","2.3","0.00","0.00"
"10:44:57","69.2","66.8","92","30.06","107","0.3","2.3","0.00","0.00"
"10:49:56","69.3","66.6","91.1","30.06","107","0.3","1.2","0.00","0.00"
"10:54:59","69.4","66.7","91","30.06","97","0","2","0.00","0.00"
"10:59:58","69.6","66.9","90.8","30.06","320","0.2","2.3","0.00","0.00"
"11:04:56","69.8","66.8","90.2","30.06","315","0.5","3.5","0.00","0.00"
"11:09:59","70.1","67.1","90.3","30.06","315","0.4","2.3","0.00","0.00"
"11:14:59","70.4","67.3","89.9","30.06","315","0.5","3","0.00","0.00"
"11:19:58","70.6","67.6","90.4","30.05","315","0.4","3.5","0.00","0.00"
"11:24:57","70.7","67.6","90.1","30.05","315","0.2","1.2","0.00","0.00"
"11:29:57","70.7","67.4","89.3","30.05","348","0.6","4","0.00","0.00"
"11:34:56","70.4","66.7","88","30.05","104","0.6","3.5","0.00","0.00"
"11:39:56","70","66.6","89","30.05","125","1.4","5","0.00","0.00"
"11:44:56","69.8","66.8","90.3","30.05","128","1","4","0.00","0.00"
"11:49:58","69.7","67.2","91.6","30.05","121","1.1","2.3","0.00","0.00"
"11:54:57","69.7","67.4","92.4","30.05","120","1.3","4","0.00","0.00"
"11:59:57","69.8","67.7","93","30.05","123","0.4","2.3","0.00","0.00"
"12:04:59","69.9","67.8","93.2","30.05","122","0.9","4","0.00","0.00"
"12:09:57","70","67.9","93","30.05","120","0.6","2.3","0.00","0.00"
"12:14:57","70.3","68.2","93","30.05","120","0.7","3.5","0.00","0.00"
"12:19:56","70.7","68.2","91.7","30.04","116","1.7","5","0.00","0.00"
"12:24:59","71.2","68.7","91.8","30.04","111","1.3","4","0.00","0.00"
"12:29:59","71.8","68.9","90.7","30.04","90","0.9","3.5","0.00","0.00"
"12:34:58","72.3","68.8","88.8","30.03","30","0.8","3.5","0.00","0.00"
"12:39:58","72.7","68.7","87.5","30.03","65","1.1","3.5","0.00","0.00"
"12:44:58","73.1","68.8","86.4","30.03","96","0.8","4","0.00","0.00"
"12:49:57","73.4","68.7","85.2","30.02","93","0","1.2","0.00","0.00"
"12:54:56","73.7","68.6","84.3","30.02","23","0.1","3","0.00","0.00"
"12:59:59","73.8","68.3","82.9","30.02","29","0.1","3.5","0.00","0.00"
"13:04:57","74.1","68.9","83.8","30.02","110","1.9","6","0.00","0.00"
"13:09:59","74.8","69.7","84","30.02","76","0.9","3.5","0.00","0.00"
"13:14:56","75.5","69","80.2","30.02","111","3.4","7","0.00","0.00"
"13:19:59","75.1","68","78.8","30.01","127","3.2","6","0.00","0.00"
"13:24:58","74.5","67.7","79.2","30.01","114","2.3","7","0.00","0.00"
"13:29:57","74.1","67.6","80.1","30.01","115","2.1","6.9","0.00","0.00"
"13:34:57","73.9","67.7","81","30.01","70","1.5","4","0.00","0.00"
"13:39:57","73.7","67.7","81.4","30.01","104","2.2","8","0.00","0.00"
"13:44:56","73.8","67.4","80.5","30.01","113","2.5","8.1","0.00","0.00"
"13:49:56","73.8","67.3","80.3","30.00","86","1.1","6","0.00","0.00"
"13:54:59","73.9","67.6","80.7","30.00","127","1.5","4.6","0.00","0.00"
"13:59:58","74","67.4","80","30.00","117","1.6","5","0.00","0.00"
"14:04:56","74","67.5","80.1","30.00","112","2.6","9.2","0.00","0.00"
"14:09:58","74","67.6","80.5","30.00","117","2.6","6.9","0.00","0.00"
"14:14:58","74","67.6","80.4","30.00","111","2.6","7","0.00","0.00"
"14:19:57","73.9","67.4","80.2","29.99","118","2.7","9","0.00","0.00"
"14:24:56","73.8","67.6","81.2","29.99","118","1.8","9","0.00","0.00"
"14:29:56","73.6","67.4","81.1","29.99","114","3.1","9.2","0.00","0.00"
"14:34:59","73.1","67.4","82.3","29.99","118","3.2","7","0.00","0.00"
"14:39:56","72.8","67.3","83","29.99","114","2.6","6.9","0.00","0.00"
"14:44:59","72.7","67.2","83","29.99","114","2.1","6","0.00","0.00"
"14:49:59","72.6","67","82.8","29.99","115","1.5","4","0.00","0.00"
"14:54:58","72.4","67","83.2","29.99","118","3.2","7","0.00","0.00"
"14:59:57","72.2","66.7","83","29.99","123","3.4","10.4","0.00","0.00"
"15:04:56","72.2","66.7","83.2","29.99","121","1.4","5","0.00","0.00"
"15:09:57","72.1","66.6","83","29.99","96","1.9","5","0.00","0.00"
"15:14:58","72.1","66.5","82.8","29.99","107","2.1","5","0.00","0.00"
"15:19:57","72","66.6","83","29.99","113","1.9","4.6","0.00","0.00"
"15:24:56","72","66.7","83.2","29.99","123","2.1","6","0.00","0.00"
"15:29:55","72.1","66.6","83.1","29.99","127","1.9","6","0.00","0.00"
"15:34:58","72.1","66.6","83","29.99","125","1.9","6","0.00","0.00"
"15:39:59","72","66.7","83.3","29.99","137","1.9","5.8","0.00","0.00"
"15:44:58","72","66.9","84.2","29.99","133","2.1","5","0.00","0.00"
"15:49:57","71.8","66.6","83.9","29.98","133","2.3","4.6","0.00","0.00"
"15:54:56","71.5","66.8","85","29.98","129","2.2","5","0.00","0.00"
"15:59:56","71.3","66.8","85.6","29.98","146","1.9","4","0.00","0.00"
"16:04:57","71.3","67.3","87.2","29.98","146","1.3","5","0.00","0.00"
"16:09:56","71.3","67.2","87","29.98","156","1.9","4.6","0.00","0.00"
"16:14:59","71.4","67.6","87.8","29.98","133","1.1","4","0.00","0.00"
"16:19:58","71.5","67.5","87.3","29.97","134","1.8","3.5","0.00","0.00"
"16:24:58","71.5","67.7","87.8","29.97","138","1","3.5","0.00","0.00"
"16:29:57","71.5","67.6","87.4","29.97","141","0.7","3.5","0.00","0.00"
"16:34:58","71.5","67.3","86.4","29.97","130","0.2","4","0.00","0.00"
"16:39:58","71.6","66.9","85.2","29.97","148","0.3","5","0.00","0.00"
"16:44:57","71.5","67","85.5","29.97","162","1.5","5","0.00","0.00"
"16:49:57","71.6","67","85.7","29.96","185","2.1","4.6","0.00","0.00"
"16:54:56","71.5","66.7","84.9","29.96","148","1.6","4","0.00","0.00"
"16:59:59","71.4","66.5","84.4","29.96","142","1.4","3.5","0.00","0.00"
"17:04:57","71.5","66.9","85.3","29.96","131","1.1","4","0.00","0.00"
"17:09:59","71.5","67","85.6","29.96","322","0.8","3.5","0.00","0.00"
"17:14:56","71.5","67","85.7","29.96","281","1.8","5","0.00","0.00"
"17:19:59","71.4","66.4","84.3","29.96","174","1.9","4.6","0.00","0.00"
"17:24:58","71.3","66.3","84.3","29.96","167","1.8","4","0.00","0.00"
"17:29:58","71.3","66.3","84.4","29.96","155","1.1","3.5","0.00","0.00"
"17:34:57","71.2","66.3","84.6","29.96","167","2.7","5","0.00","0.00"
"17:39:58","71","66.2","84.7","29.96","178","2.2","4","0.00","0.00"
"17:44:57","70.9","66.2","85","29.96","176","1.5","4","0.00","0.00"
"17:49:56","70.9","66.1","84.8","29.95","178","2.1","4","0.00","0.00"
"17:54:59","70.9","66.1","84.8","29.95","148","1.4","4","0.00","0.00"
"17:59:58","70.8","66.1","85","29.95","127","1.7","5","0.00","0.00"
"18:04:56","70.8","66.1","85","29.94","144","1.8","4","0.00","0.00"
"18:09:58","70.7","66.1","85.4","29.94","155","1","3.5","0.00","0.00"
"18:14:58","70.7","66.1","85.5","29.94","130","1.7","5","0.00","0.00"
"18:19:57","70.6","66.2","86","29.94","176","1.3","4","0.00","0.00"
"18:24:56","70.5","66.1","85.8","29.94","173","1.6","4","0.00","0.00"
"18:29:59","70.4","66","86","29.94","185","2","6","0.00","0.00"
"18:34:59","70.3","66","86.3","29.94","179","1.2","3.5","0.00","0.00"
"18:39:59","70.3","66.2","86.8","29.94","169","1.5","5","0.00","0.00"
"18:44:58","70.2","65.9","86.3","29.94","182","1.6","4.6","0.00","0.00"
"18:49:58","70.2","66","86.8","29.94","172","1.7","5","0.00","0.00"
"18:54:57","70.1","66","87","29.94","166","1.5","4","0.00","0.00"
"18:59:56","70.1","65.9","86.8","29.94","151","1.4","4","0.00","0.00"
"19:04:58","70","66","87","29.93","161","1.9","4","0.00","0.00"
"19:09:56","69.9","65.9","87","29.93","169","1.4","5","0.00","0.00"
"19:14:57","69.8","65.8","87","29.94","184","1.8","4.6","0.00","0.00"
"19:19:56","69.7","65.7","87","29.94","156","1.4","3.5","0.00","0.00"
"19:24:56","69.6","65.6","87","29.94","162","1.7","5","0.00","0.00"
"19:29:59","69.6","65.7","87.5","29.94","177","1.8","4","0.00","0.00"
"19:34:59","69.5","65.8","88","29.94","177","1.3","3.5","0.00","0.00"
"19:39:56","69.4","65.6","87.7","29.94","177","1.4","3.5","0.00","0.00"
"19:44:59","69.3","65.5","87.8","29.94","177","1","3.5","0.00","0.00"
"19:49:58","69.1","65.4","88","29.93","177","0.4","2.3","0.00","0.00"
"19:54:58","69.1","65.4","88","29.93","177","0.7","2.3","0.00","0.00"
"19:59:58","69","65.3","88","29.93","165","1","2.3","0.00","0.00"
"20:04:56","68.9","65.3","88.2","29.93","155","0.5","2.3","0.00","0.00"
"20:09:58","68.8","65.3","88.7","29.93","155","0.7","2.3","0.00","0.00"
"20:14:59","68.7","65.2","88.5","29.93","155","0.3","1.2","0.00","0.00"
"20:19:59","68.6","65.2","89","29.93","155","0.1","1.2","0.00","0.00"
"20:24:58","68.4","65","89","29.93","154","1.3","3.5","0.00","0.00"
"20:29:58","68.3","65","89.2","29.93","154","0.1","2.3","0.00","0.00"
"20:34:58","68.1","65.1","89.8","29.93","154","0.1","2","0.00","0.00"
"20:39:59","67.9","64.9","90","29.93","154","0.1","2.3","0.00","0.00"
"20:44:59","67.7","64.7","90","29.93","155","0.1","1.2","0.00","0.00"
"20:49:58","67.5","64.5","90","29.93","155","0.2","1.2","0.00","0.00"
"20:54:58","67.3","64.4","90.3","29.93","155","0.1","1.2","0.00","0.00"
"20:59:58","67","64.3","91","29.94","155","0","0","0.00","0.00"
"21:04:56","66.7","64.2","91.6","29.94","155","0","0","0.00","0.00"
"21:09:59","66.5","64.1","92","29.94","155","0","0","0.00","0.00"
"21:14:59","66.2","63.8","92","29.94","155","0","0","0.00","0.00"
"21:19:57","65.8","63.4","92","29.94","155","0","0","0.00","0.00"
"21:24:57","65.5","63.2","92.1","29.94","155","0","0","0.00","0.00"
"21:29:57","65.3","63.2","93","29.96","155","0","0","0.00","0.00"
"21:34:57","65.1","63","93.1","29.96","155","0","0","0.00","0.00"
"21:39:58","64.9","63.1","94","29.96","155","0","0","0.00","0.00"
"21:44:58","64.7","62.9","94","29.96","155","0","0","0.00","0.00"
"21:49:57","64.5","62.5","93.3","29.96","155","0","0","0.00","0.00"
"21:54:57","64.2","62.1","93","29.96","155","0","0","0.00","0.00"
"21:59:57","64","62.2","93.8","29.96","155","0","0","0.00","0.00"
"22:04:59","63.8","62","94","29.96","155","0","0","0.00","0.00"
"22:09:58","63.6","61.8","94","29.96","155","0","0","0.00","0.00"
"22:14:58","63.5","61.9","94.8","29.96","155","0","0","0.00","0.00"
"22:19:58","63.5","62","95","29.96","155","0","0","0.00","0.00"
"22:24:58","63.3","61.6","94.3","29.96","155","0","0","0.00","0.00"
"22:29:57","63.1","61.6","95","29.96","155","0","0","0.00","0.00"
"22:34:58","63","61.5","95","29.96","155","0","0","0.00","0.00"
"22:39:57","62.8","61.3","95","29.96","155","0","0","0.00","0.00"
"22:44:57","62.6","61.1","95","29.96","155","0","0","0.00","0.00"
"22:49:57","62.5","61","95","29.96","155","0","0","0.00","0.00"
"22:54:58","62.5","61.3","95.9","29.96","155","0","0","0.00","0.00"
"22:59:58","62.5","61.3","96","29.96","155","0","0","0.00","0.00"
"23:04:56","62.7","61.5","96","29.96","155","0","0","0.00","0.00"
"23:09:58","62.9","62","96.8","29.96","155","0.2","1.2","0.00","0.00"
"23:14:59","63.1","62.2","97","29.96","155","0.1","1.2","0.00","0.00"
"23:19:58","63.3","62.4","97","29.96","155","0","0","0.00","0.00"
"23:24:59","63.4","62.5","97","29.96","155","0","0","0.00","0.00"
"23:29:59","63.4","62.5","97","29.96","155","0","0","0.00","0.00"
"23:34:59","63.6","62.7","97","29.96","155","0","0","0.00","0.00"
"23:39:56","63.6","62.7","97","29.96","155","0","0","0.00","0.00"
"23:44:56","63.7","62.8","97","29.96","155","0","0","0.00","0.00"
"23:49:59","64","63.1","97","29.95","155","0.3","3.5","0.00","0.00"
"23:54:59","64","63.1","97","29.95","155","0.1","2.3","0.00","0.00"
"23:59:59","63.9","63","97","29.95","155","0.2","1.2","0.00","0.00"
